Dothan, AL

1:12 AM CDT on June 24, 2017 (GMT -0500)
Dothan Regional

Weather History for KDHN - February, 2014

Change the Weather History Date:

Friday, February 28, 2014

  Actual Average Record
Temperature  
Mean Temperature 45 °F 56 °F  
Max Temperature 61 °F 68 °F 83 °F (1948)
Min Temperature 29 °F 44 °F 23 °F (2002)
Degree Days  
Heating Degree Days 20 10  
Month to date heating degree days 328 344  
Since 1 July heating degree days 1665 1559  
Moisture  
Dew Point 26 °F    
Average Humidity 49    
Maximum Humidity 76    
Minimum Humidity 23    
Precipitation  
Precipitation 0.00 in 0.16 in 1.74 in (1966)
Month to date precipitation 4.80 4.77  
Year to date precipitation 7.73 9.40  
Sea Level Pressure  
Sea Level Pressure 30.12 in    
Wind  
Wind Speed 5 mph (ENE)    
Max Wind Speed 10 mph    
Max Gust Speed -    
Visibility 10 miles    
Events      
T = Trace of Precipitation, MM = Missing Value Source: NWS Daily Summary

Daily Weather History Graph

Daily Weather History Graph

Search for Another Location

Airport or City:

Trip Planner

Search our weather history database for the weather conditions in past years. The results will help you decide how hot, cold, wet, or windy it might be!

Date:

Astronomy

Feb. 28, 2014 Rise Set
Actual Time 6:09 AM CST 5:39 PM CST
Civil Twilight 5:45 AM CST 6:03 PM CST
Nautical Twilight 5:17 AM CST 6:31 PM CST
Astronomical Twilight 4:49 AM CST 6:59 PM CST
Moon 5:23 AM CST (2/28) 5:14 PM CST (2/28)
Length of Visible Light 12h 18m
Length of Day
11h 29m
Waning Crescent, 1% of the Moon is Illuminated
Feb 28
Waning Crescent
Mar 1
New
Mar 8
First Quarter
Mar 16
Full
Mar 23
Last Quarter

Hourly Weather History & Observations

Time (CST) Temp. Windchill Dew Point Humidity Pressure Visibility Wind Dir Wind Speed Gust Speed Precip Events Conditions
12:53 AM 34.0 °F 31.0 °F 26.1 °F 73% 30.06 in 10.0 mi NW 3.5 mph - N/A   Clear
1:53 AM 32.0 °F 26.4 °F 25.0 °F 75% 30.06 in 10.0 mi NNW 5.8 mph - N/A   Clear
2:53 AM 32.0 °F 28.7 °F 25.0 °F 75% 30.06 in 10.0 mi North 3.5 mph - N/A   Clear
3:53 AM 30.9 °F 27.5 °F 24.1 °F 76% 30.07 in 10.0 mi North 3.5 mph - N/A   Clear
4:53 AM 30.0 °F 26.5 °F 21.9 °F 72% 30.09 in 10.0 mi NNE 3.5 mph - N/A   Clear
5:53 AM 30.0 °F 23.2 °F 23.0 °F 75% 30.11 in 10.0 mi NNE 6.9 mph - N/A   Clear
6:53 AM 33.1 °F 28.7 °F 24.1 °F 70% 30.14 in 10.0 mi ENE 4.6 mph - N/A   Clear
7:53 AM 39.9 °F 35.1 °F 24.1 °F 53% 30.17 in 10.0 mi NE 6.9 mph - N/A   Clear
8:53 AM 45.0 °F 40.6 °F 25.0 °F 46% 30.17 in 10.0 mi East 8.1 mph - N/A   Clear
9:53 AM 48.9 °F - 21.9 °F 35% 30.17 in 10.0 mi East 10.4 mph - N/A   Clear
10:53 AM 52.0 °F - 21.9 °F 31% 30.16 in 10.0 mi ENE 4.6 mph - N/A   Clear
11:53 AM 55.0 °F - 24.1 °F 30% 30.14 in 10.0 mi East 6.9 mph - N/A   Clear
12:53 PM 57.0 °F - 21.0 °F 25% 30.11 in 10.0 mi Calm Calm - N/A   Clear
1:53 PM 59.0 °F - 21.9 °F 24% 30.09 in 10.0 mi Calm Calm - N/A   Clear
2:53 PM 60.1 °F - 21.9 °F 23% 30.11 in 10.0 mi Calm Calm - N/A   Partly Cloudy
3:53 PM 61.0 °F - 24.1 °F 24% 30.09 in 10.0 mi NNE 3.5 mph - N/A   Partly Cloudy
4:53 PM 59.0 °F - 25.0 °F 27% 30.10 in 10.0 mi SSE 4.6 mph - N/A   Partly Cloudy
5:53 PM 54.0 °F - 30.0 °F 40% 30.12 in 10.0 mi ESE 3.5 mph - N/A   Clear
6:53 PM 51.1 °F - 37.9 °F 61% 30.15 in 10.0 mi Calm Calm - N/A   Clear
7:53 PM 52.0 °F - 36.0 °F 54% 30.16 in 10.0 mi East 5.8 mph - N/A   Clear
8:53 PM 53.1 °F - 30.0 °F 41% 30.14 in 10.0 mi SE 9.2 mph - N/A   Partly Cloudy
9:53 PM 52.0 °F - 30.9 °F 45% 30.14 in 10.0 mi South 8.1 mph - N/A   Clear
10:53 PM 50.0 °F - 34.0 °F 54% 30.15 in 10.0 mi SSW 5.8 mph - N/A   Mostly Cloudy
11:53 PM 48.0 °F - 34.0 °F 58% 30.17 in 10.0 mi West 5.8 mph - N/A   Clear